Location: Newark
(38.6428°N, 100.1689°W)
Time: 23:20:09
(UTC+00:00)

Envisat - Visible Passes

Search period start: 11 November 2019 00:00
Search period end: 21 November 2019 00:00
Orbit: 764 x 766 km, 98.1° (Epoch: 11 November)

Date Brightness Start Highest point End Pass type
(mag) Time Alt. Az. Time Alt. Az. Time Alt. Az.
11 Nov 2.9 00:30:46 10° SSE 00:35:48 67° ENE 00:40:51 10° N visible
11 Nov 6.1 02:13:02 10° WSW 02:15:15 13° W 02:17:29 10° WNW visible
11 Nov 5.6 12:41:40 10° NE 12:45:52 26° E 12:50:02 10° SSE visible
11 Nov 3.8 23:54:52 10° SE 23:59:13 30° ENE 00:03:36 10° N visible
12 Nov 4.9 01:33:46 10° SSW 01:38:10 30° W 01:42:36 10° NW visible
12 Nov 6.5 12:07:34 10° ENE 12:08:44 11° E 12:09:53 10° ESE visible
13 Nov 3.3 00:56:14 10° S 01:01:16 69° WSW 01:06:21 10° NNW visible
14 Nov 3.1 00:19:39 10° SSE 00:24:33 52° ENE 00:29:30 10° N visible
14 Nov 5.8 02:00:41 10° SW 02:03:52 17° W 02:07:04 10° NW visible
14 Nov 5.9 12:30:47 10° NE 12:34:30 20° E 12:38:12 10° SE visible
15 Nov 4.5 01:22:08 10° SSW 01:26:50 38° W 01:31:33 10° NNW visible
16 Nov 3.0 00:44:55 10° SSE 00:49:59 87° WSW 00:55:06 10° NNW visible
16 Nov 4.9 12:55:30 10° NNE 13:00:10 36° E 13:04:48 10° SSE visible
17 Nov 3.4 00:08:37 10° SE 00:13:21 41° ENE 00:18:06 10° N visible
17 Nov 5.4 01:48:41 10° SW 01:52:29 21° W 01:56:20 10° NW visible
17 Nov 6.1 12:20:06 10° NE 12:23:08 16° E 12:26:09 10° SE visible
18 Nov 4.0 01:10:38 10° S 01:15:31 48° W 01:20:27 10° NNW visible
19 Nov 2.9 00:33:41 10° SSE 00:38:44 74° ENE 00:43:49 10° N visible
19 Nov 6.2 02:16:37 10° WSW 02:18:15 11° W 02:19:54 10° WNW visible
19 Nov 5.4 12:44:29 10° NE 12:48:50 28° E 12:53:09 10° SSE visible
19 Nov 3.6 23:57:40 10° SE 00:02:09 33° ENE 00:06:38 10° N visible
20 Nov 5.1 01:36:53 10° SSW 01:41:08 27° W 01:45:26 10° NW visible
20 Nov 6.3 12:09:49 10° ENE 12:11:44 12° E 12:13:39 10° ESE visible
